Simultaneous Nadir Overpasses (SNOs) Predictions

Prediction of SNOs between GOES-15 and METOP-B Satellite Orbit:

Table of predicted SNOs for the next 14.0 days since TLE Epoch: 8/10/2024
Index Date Time (GOES-15) GOES-15 Lat,Lon METOP-B Lat,Lon Distance(km) Time Diff (sec)
1 08/10/2024 17:23:15 0.06, 61.74 -0.57, 58.97 315.56 80
2 08/11/2024 17:05:17 0.03, 61.77 0.51, 63.96 249.05 80
3 08/13/2024 05:21:32 -0.07, 61.70 0.44, 59.36 267.01 80
4 08/14/2024 05:03:33 -0.05, 61.74 -0.64, 64.35 297.04 80
5 08/15/2024 17:19:56 0.09, 61.93 -0.39, 59.73 250.67 80
6 08/16/2024 17:01:57 0.06, 61.97 0.70, 64.72 313.03 80
7 08/18/2024 05:18:12 -0.11, 61.92 0.29, 60.13 204.08 80
8 08/19/2024 05:00:13 -0.08, 61.96 -0.81, 65.11 359.36 80
9 08/20/2024 17:16:34 0.13, 62.16 -0.26, 60.50 188.93 80
10 08/21/2024 16:58:36 0.11, 62.20 0.85, 65.49 374.52 80
11 08/23/2024 05:14:50 -0.15, 62.15 0.12, 60.89 142.63 80
